HODOYOSHI-3

Last updated on Mon Oct 14 2024 00:02:24 GMT+0000 (Coordinated Universal Time)

1 40015U 14033F 24287.48070917 .00004302 00000+0 54027-3 0 9999 2 40015 97.5985 107.2224 0034058 205.3993 154.5548 14.82216817556899
UTC large
Height (km)
Speed (km/s)
/
Latitude / Longitude
Inclination (degrees)
Orbital Period (minutes)
Azimuth
Elevation
Range (km)
Doppler Factor

Next 0 passes for location: London (51.5072 / 0.1276)

Sorry there are no passes over London.